TimeEDT,TemperatureF,Dew PointF,Humidity,Sea Level PressureIn,VisibilityMPH,Wind Direction,Wind SpeedMPH,Gust SpeedMPH,PrecipitationIn,Events,Conditions,WindDirDegrees,DateUTC
12:15 AM,42.8,39.2,87,30.03,10.0,Calm,Calm,-,N/A,,Clear,0,2013-04-06 04:15:00
12:35 AM,42.8,39.2,87,30.03,10.0,North,4.6,-,N/A,,Clear,360,2013-04-06 04:35:00
12:55 AM,42.8,39.2,87,30.04,10.0,North,6.9,-,N/A,,Clear,10,2013-04-06 04:55:00
1:15 AM,46.4,37.4,71,30.04,10.0,North,6.9,-,N/A,,Clear,10,2013-04-06 05:15:00
1:35 AM,46.4,35.6,66,30.05,10.0,North,5.8,-,N/A,,Clear,10,2013-04-06 05:35:00
1:55 AM,46.4,37.4,71,30.05,10.0,North,5.8,-,N/A,,Clear,10,2013-04-06 05:55:00
2:15 AM,46.4,33.8,62,30.05,10.0,North,8.1,-,N/A,,Clear,10,2013-04-06 06:15:00
2:35 AM,46.4,32.0,57,30.06,10.0,NNE,6.9,-,N/A,,Clear,20,2013-04-06 06:35:00
2:55 AM,48.2,30.2,50,30.07,10.0,NNE,8.1,-,N/A,,Clear,20,2013-04-06 06:55:00
3:15 AM,48.2,30.2,50,30.08,10.0,North,9.2,-,N/A,,Clear,10,2013-04-06 07:15:00
3:35 AM,46.4,30.2,53,30.09,10.0,NNE,8.1,-,N/A,,Clear,20,2013-04-06 07:35:00
3:55 AM,46.4,28.4,50,30.10,10.0,North,5.8,-,N/A,,Clear,10,2013-04-06 07:55:00
4:15 AM,46.4,28.4,50,30.11,10.0,North,3.5,-,N/A,,Clear,10,2013-04-06 08:15:00
4:35 AM,46.4,28.4,50,30.12,10.0,NNE,4.6,-,N/A,,Clear,20,2013-04-06 08:35:00
4:55 AM,44.6,28.4,53,30.14,10.0,NNE,5.8,-,N/A,,Clear,30,2013-04-06 08:55:00
5:15 AM,44.6,26.6,49,30.15,10.0,NNE,8.1,-,N/A,,Clear,20,2013-04-06 09:15:00
5:35 AM,44.6,24.8,46,30.16,10.0,NNE,8.1,-,N/A,,Clear,20,2013-04-06 09:35:00
5:55 AM,44.6,24.8,46,30.17,10.0,North,8.1,-,N/A,,Clear,10,2013-04-06 09:55:00
6:15 AM,44.6,24.8,46,30.18,10.0,NNE,5.8,-,N/A,,Clear,20,2013-04-06 10:15:00
6:35 AM,42.8,24.8,49,30.19,10.0,NNE,4.6,-,N/A,,Clear,30,2013-04-06 10:35:00
6:55 AM,42.8,24.8,49,30.21,10.0,NNE,5.8,-,N/A,,Clear,20,2013-04-06 10:55:00
7:15 AM,42.8,24.8,49,30.22,10.0,NE,3.5,-,N/A,,Clear,40,2013-04-06 11:15:00
7:35 AM,42.8,26.6,53,30.24,10.0,North,3.5,-,N/A,,Clear,10,2013-04-06 11:35:00
7:55 AM,44.6,26.6,49,30.25,10.0,NNE,3.5,-,N/A,,Clear,30,2013-04-06 11:55:00
8:15 AM,44.6,28.4,53,30.26,10.0,NE,4.6,-,N/A,,Clear,40,2013-04-06 12:15:00
8:35 AM,46.4,30.2,53,30.26,10.0,NE,8.1,-,N/A,,Clear,40,2013-04-06 12:35:00
8:55 AM,48.2,30.2,50,30.28,10.0,ENE,4.6,-,N/A,,Clear,60,2013-04-06 12:55:00
9:15 AM,48.2,30.2,50,30.29,10.0,NE,8.1,-,N/A,,Clear,40,2013-04-06 13:15:00
9:35 AM,51.8,32.0,47,30.29,10.0,NNE,6.9,-,N/A,,Clear,30,2013-04-06 13:35:00
9:55 AM,53.6,32.0,44,30.30,10.0,ENE,5.8,-,N/A,,Clear,60,2013-04-06 13:55:00
10:15 AM,53.6,32.0,44,30.31,10.0,ENE,6.9,-,N/A,,Clear,70,2013-04-06 14:15:00
10:35 AM,53.6,33.8,47,30.32,10.0,ENE,8.1,-,N/A,,Clear,60,2013-04-06 14:35:00
10:55 AM,53.6,32.0,44,30.32,10.0,East,8.1,-,N/A,,Clear,80,2013-04-06 14:55:00
11:15 AM,53.6,30.2,41,30.32,10.0,ENE,4.6,-,N/A,,Clear,60,2013-04-06 15:15:00
11:35 AM,53.6,30.2,41,30.33,10.0,NE,5.8,-,N/A,,Clear,50,2013-04-06 15:35:00
11:55 AM,55.4,32.0,41,30.33,10.0,ENE,3.5,-,N/A,,Clear,60,2013-04-06 15:55:00
12:15 PM,55.4,30.2,38,30.32,10.0,NE,6.9,-,N/A,,Clear,40,2013-04-06 16:15:00
12:35 PM,57.2,30.2,36,30.32,10.0,Calm,Calm,-,N/A,,Clear,0,2013-04-06 16:35:00
12:55 PM,55.4,30.2,38,30.32,10.0,ENE,6.9,-,N/A,,Clear,70,2013-04-06 16:55:00
1:15 PM,55.4,28.4,36,30.31,10.0,East,9.2,-,N/A,,Clear,80,2013-04-06 17:15:00
1:35 PM,57.2,28.4,33,30.32,10.0,East,8.1,-,N/A,,Clear,100,2013-04-06 17:35:00
1:55 PM,57.2,28.4,33,30.31,10.0,Calm,Calm,-,N/A,,Clear,0,2013-04-06 17:55:00
2:15 PM,57.2,26.6,31,30.31,10.0,ENE,6.9,-,N/A,,Clear,60,2013-04-06 18:15:00
2:35 PM,57.2,28.4,33,30.31,10.0,NE,4.6,-,N/A,,Clear,50,2013-04-06 18:35:00
2:55 PM,60.8,28.4,29,30.30,10.0,NE,3.5,-,N/A,,Clear,50,2013-04-06 18:55:00
3:15 PM,59.0,26.6,29,30.30,10.0,NE,3.5,-,N/A,,Clear,40,2013-04-06 19:15:00
3:35 PM,59.0,28.4,31,30.29,10.0,East,5.8,-,N/A,,Clear,80,2013-04-06 19:35:00
3:55 PM,59.0,28.4,31,30.29,10.0,East,5.8,-,N/A,,Clear,80,2013-04-06 19:55:00
4:15 PM,59.0,28.4,31,30.28,10.0,East,4.6,-,N/A,,Clear,80,2013-04-06 20:15:00
4:35 PM,57.2,30.2,36,30.28,10.0,East,8.1,-,N/A,,Clear,100,2013-04-06 20:35:00
4:55 PM,57.2,30.2,36,30.29,10.0,East,8.1,-,N/A,,Clear,90,2013-04-06 20:55:00
5:15 PM,57.2,32.0,38,30.29,10.0,East,6.9,-,N/A,,Clear,90,2013-04-06 21:15:00
5:35 PM,55.4,32.0,41,30.30,10.0,ESE,5.8,-,N/A,,Clear,110,2013-04-06 21:35:00
5:55 PM,55.4,32.0,41,30.30,10.0,East,6.9,-,N/A,,Clear,90,2013-04-06 21:55:00
6:15 PM,53.6,32.0,44,30.30,10.0,ESE,4.6,-,N/A,,Clear,110,2013-04-06 22:15:00
6:35 PM,53.6,30.2,41,30.30,10.0,SE,8.1,-,N/A,,Clear,140,2013-04-06 22:35:00
6:55 PM,51.8,32.0,47,30.31,10.0,ESE,4.6,-,N/A,,Clear,120,2013-04-06 22:55:00
7:15 PM,48.2,33.8,58,30.31,-9999.0,SE,9.2,-,N/A,,Clear,130,2013-04-06 23:15:00
7:35 PM,46.4,33.8,62,30.31,10.0,ESE,6.9,-,N/A,,Clear,120,2013-04-06 23:35:00
7:55 PM,46.4,33.8,62,30.32,10.0,ESE,9.2,-,N/A,,Clear,120,2013-04-06 23:55:00
8:15 PM,44.6,33.8,66,30.32,10.0,ESE,5.8,-,N/A,,Clear,120,2013-04-07 00:15:00
8:35 PM,44.6,33.8,66,30.32,10.0,ESE,9.2,-,N/A,,Clear,120,2013-04-07 00:35:00
8:55 PM,44.6,33.8,66,30.33,10.0,SE,10.4,-,N/A,,Clear,130,2013-04-07 00:55:00
9:15 PM,42.8,33.8,70,30.34,10.0,SE,8.1,16.1,N/A,,Clear,130,2013-04-07 01:15:00
9:35 PM,42.8,33.8,70,30.34,10.0,East,4.6,-,N/A,,Clear,100,2013-04-07 01:35:00
9:55 PM,42.8,33.8,70,30.34,10.0,ESE,4.6,-,N/A,,Clear,110,2013-04-07 01:55:00
10:15 PM,42.8,33.8,70,30.34,10.0,ESE,5.8,-,N/A,,Clear,110,2013-04-07 02:15:00
10:35 PM,42.8,35.6,76,30.34,10.0,ESE,6.9,-,N/A,,Clear,120,2013-04-07 02:35:00
10:55 PM,42.8,35.6,76,30.34,10.0,SE,6.9,-,N/A,,Clear,130,2013-04-07 02:55:00
11:15 PM,42.8,35.6,76,30.34,10.0,ESE,5.8,-,N/A,,Clear,120,2013-04-07 03:15:00
11:35 PM,42.8,35.6,76,30.34,10.0,SSE,10.4,-,N/A,,Clear,150,2013-04-07 03:35:00
11:55 PM,42.8,35.6,76,30.34,10.0,SSE,10.4,-,N/A,,Clear,150,2013-04-07 03:55:00